Location: Unspecified
(0.0000°N, 0.0000°E)
Time: 03:23:43
(UTC+00:00)

Vanguard 2 - Pass Details

Date: 03 June 2024
Orbit: 552 x 2914 km, 32.9° (Epoch: 14 June)

Event Time Altitude Azimuth Distance (km) Brightness Sun altitude
Exits shadow 05:28:14 - 220° (SW) 6,080 11.6 -6.9°
Reaches altitude 10° 05:32:24 10° 212° (SSW) 5,349 11.3 -6.0°
Maximum altitude 05:47:25 38° 149° (SSE) 3,905 11.2 -2.5°
Drops below altitude 10° 06:02:24 10° 88° (E) 5,390 13.4 1.0°
Sets 06:06:43 0° 80° (E) 6,170 14.3 2.0°
